FW4606 Weather Reports


time (UTC)temp
C
wind
direction
speed
KPH
gust
KPH
rain 1hr
cm
rain 24hr
cm
rain mn
cm
humidity
%
barometer
mb
20260505090354 1 149 0.0 1.6 0.00 0.00 0.00 78 1007.6
20260505085849 1 153 0.0 1.6 0.00 0.00 0.00 77 1007.5
20260505085343 1 135 0.0 1.6 0.00 0.00 0.00 77 1007.4
20260505084837 1 78 0.0 3.2 0.00 0.00 0.00 77 1007.4
20260505084331 1 136 0.0 4.8 0.00 0.00 0.00 76 1007.4
20260505083825 1 125 0.0 4.8 0.00 0.00 0.00 76 1007.3
20260505083325 1 246 0.0 4.8 0.00 0.00 0.00 76 1007.3
20260505082821 1 289 0.0 1.6 0.00 0.00 0.00 76 1007.1
20260505082322 1 152 0.0 1.6 0.00 0.00 0.00 75 1007.1
20260505081823 1 150 0.0 0.0 0.00 0.00 0.00 75 1007.0
20260505081551 2 150 0.0 1.6 0.00 0.00 0.00 74 1007.0
20260505080819 2 354 0.0 1.6 0.00 0.00 0.00 73 1006.9
20260505080318 2 98 0.0 1.6 0.00 0.00 0.00 73 1006.8
20260505075820 2 82 0.0 4.8 0.00 0.00 0.00 72 1006.8
20260505075548 2 153 0.0 4.8 0.00 0.00 0.00 71 1006.9
20260505074817 2 141 0.0 3.2 0.00 0.00 0.00 71 1006.9
20260505074318 2 229 0.0 3.2 0.00 0.00 0.00 70 1006.9
20260505074049 3 232 0.0 1.6 0.00 0.00 0.00 69 1006.9
20260505073317 3 158 0.0 3.2 0.00 0.00 0.00 68 1006.9
20260505072816 3 147 0.0 3.2 0.00 0.00 0.00 67 1006.8
20260505072316 3 109 1.6 4.8 0.00 0.00 0.00 66 1006.8
20260505071821 3 160 1.6 4.8 0.00 0.00 0.00 65 1006.7
20260505071816 3 242 1.6 4.8 0.00 0.00 0.00 65 1006.7
20260505070817 3 159 3.2 4.8 0.00 0.00 0.00 65 1006.7
20260505070310 4 194 3.2 6.4 0.00 0.00 0.00 64 1006.8
20260505065805 4 169 1.6 6.4 0.00 0.00 0.00 64 1006.8
20260505065259 4 166 1.6 9.7 0.00 0.00 0.00 64 1006.7
20260505064753 4 165 3.2 9.7 0.00 0.00 0.00 64 1006.7
20260505064247 4 163 3.2 6.4 0.00 0.00 0.00 63 1006.7
20260505063741 4 259 1.6 6.4 0.00 0.00 0.00 64 1006.7
20260505063505 4 212 1.6 6.4 0.00 0.00 0.00 64 1006.6
20260505062729 4 140 1.6 4.8 0.00 0.00 0.00 64 1006.6
20260505062223 4 249 0.0 4.8 0.00 0.00 0.00 63 1006.7
20260505061717 4 124 1.6 6.4 0.00 0.00 0.00 63 1006.6
20260505061210 5 65 3.2 8.0 0.00 0.00 0.00 61 1006.6
20260505060705 5 235 3.2 8.0 0.00 0.00 0.00 62 1006.6
20260505060159 5 175 1.6 6.4 0.00 0.00 0.00 62 1006.5
20260505055653 5 168 1.6 4.8 0.00 0.00 0.00 62 1006.6
20260505055146 5 166 1.6 8.0 0.00 0.00 0.00 61 1006.5
20260505054917 5 177 1.6 8.0 0.00 0.00 0.00 61 1006.4
20260505054144 5 160 3.2 6.4 0.00 0.00 0.00 61 1006.5
20260505053644 5 181 3.2 8.0 0.00 0.00 0.00 61 1006.4
20260505053145 5 238 3.2 8.0 0.00 0.00 0.00 61 1006.5
20260505052643 5 221 3.2 6.4 0.00 0.00 0.00 62 1006.4
20260505052145 5 179 1.6 6.4 0.00 0.00 0.00 62 1006.4
20260505051643 5 163 1.6 4.8 0.00 0.00 0.00 63 1006.2
20260505051411 5 108 1.6 4.8 0.00 0.00 0.00 62 1006.2
20260505050639 4 89 1.6 3.2 0.00 0.00 0.00 64 1006.2
20260505050140 5 166 1.6 3.2 0.00 0.00 0.00 63 1006.2
20260505041634 3 215 0.0 3.2 0.00 0.00 0.00 66 1006.1
20260505041135 4 163 0.0 3.2 0.00 0.00 0.00 66 1006.1
20260505040634 4 207 0.0 3.2 0.00 0.00 0.00 66 1006.0
20260505040401 4 172 0.0 3.2 0.00 0.00 0.00 65 1006.0
20260505035629 4 163 0.0 3.2 0.00 0.00 0.00 66 1006.0
20260505035131 4 162 0.0 1.6 0.00 0.00 0.00 65 1006.0
20260505034902 4 205 0.0 1.6 0.00 0.00 0.00 64 1006.0
20260505034357 4 210 0.0 3.2 0.00 0.00 0.00 64 1006.0
20260505033624 5 194 1.6 3.2 0.00 0.00 0.00 63 1005.9
20260505033123 5 166 0.0 3.2 0.00 0.00 0.00 63 1005.9
20260505032616 5 205 0.0 1.6 0.00 0.00 0.00 62 1005.9
20260505032110 5 165 0.0 3.2 0.00 0.00 0.00 62 1005.9
20260505031608 5 165 1.6 3.2 0.00 0.00 0.00 61 1005.9
20260505031110 5 174 1.6 3.2 0.00 0.00 0.00 60 1005.9
20260505030608 5 156 0.0 3.2 0.00 0.00 0.00 60 1005.9
20260505030109 5 160 0.0 1.6 0.00 0.00 0.00 61 1005.8
20260505025609 5 208 0.0 3.2 0.00 0.00 0.00 60 1005.8
20260505025109 5 175 0.0 3.2 0.00 0.00 0.00 59 1005.8
20260505024609 6 211 1.6 3.2 0.00 0.00 0.00 58 1005.7
20260505024337 6 163 1.6 3.2 0.00 0.00 0.00 57 1005.7
20260505023608 6 194 0.0 3.2 0.00 0.00 0.00 57 1005.5
20260505023107 6 208 0.0 3.2 0.00 0.00 0.00 57 1005.5
20260505022606 6 166 0.0 1.6 0.00 0.00 0.00 57 1005.5
20260505022107 6 155 0.0 1.6 0.00 0.00 0.00 57 1005.4
20260505021610 6 202 0.0 1.6 0.00 0.00 0.00 55 1005.3
20260505021606 6 189 0.0 1.6 0.00 0.00 0.00 56 1005.4
20260505020602 6 202 0.0 3.2 0.00 0.00 0.00 54 1005.2
20260505020329 6 229 0.0 4.8 0.00 0.00 0.00 53 1005.2
20260505015821 7 258 1.6 8.0 0.00 0.00 0.00 53 1005.1
20260505015045 7 294 1.6 8.0 0.00 0.00 0.00 52 1005.1
20260505014539 7 114 0.0 3.2 0.00 0.00 0.00 52 1005.0
20260505014307 7 224 0.0 4.8 0.00 0.00 0.00 53 1004.9
20260505013527 7 277 1.6 4.8 0.00 0.00 0.00 52 1004.8
20260505013021 7 150 1.6 4.8 0.00 0.00 0.00 51 1004.8
20260505012514 7 219 1.6 4.8 0.00 0.00 0.00 51 1004.7
20260505012240 8 194 1.6 4.8 0.00 0.00 0.00 52 1004.6
20260505011503 8 253 1.6 4.8 0.00 0.00 0.00 50 1004.6
20260505011002 8 173 3.2 9.7 0.00 0.00 0.00 50 1004.5
20260505010500 8 41 3.2 11.3 0.00 0.00 0.00 49 1004.5
20260505010000 8 167 3.2 11.3 0.00 0.00 0.00 49 1004.4
20260505005500 8 205 3.2 11.3 0.00 0.00 0.00 48 1004.3
20260505004958 9 79 3.2 9.7 0.00 0.00 0.00 46 1004.3
20260505004456 9 132 3.2 9.7 0.00 0.00 0.00 47 1004.3
20260505003956 9 162 1.6 8.0 0.00 0.00 0.00 51 1004.3
20260505003459 9 89 1.6 8.0 0.00 0.00 0.00 51 1004.3
20260505002957 9 138 1.6 8.0 0.00 0.00 0.00 49 1004.2
20260505002454 9 283 1.6 6.4 0.00 0.00 0.00 49 1004.2
20260505001954 9 109 0.0 4.8 0.00 0.00 0.00 50 1004.2
20260505001726 9 91 1.6 9.7 0.00 0.00 0.00 50 1004.1
20260505000953 10 264 4.8 16.1 0.00 0.00 0.00 48 1004.0
20260505000454 10 176 3.2 16.1 0.00 0.00 0.00 45 1003.8
20260504235952 11 120 1.6 11.3 0.00 0.00 0.00 45 1003.7
20260504235453 11 222 3.2 11.3 0.00 0.00 0.00 46 1003.6
20260504235448 11 69 1.6 11.3 0.00 0.00 0.00 46 1003.6
20260504234449 11 338 3.2 11.3 0.00 0.00 0.00 43 1003.5
20260504233948 12 96 3.2 14.5 0.00 0.00 0.00 42 1003.4
20260504233448 12 314 1.6 14.5 0.00 0.00 0.00 43 1003.4
20260504233219 11 105 1.6 8.0 0.00 0.00 0.00 42 1003.3
20260504232447 12 210 1.6 9.7 0.00 0.00 0.00 45 1003.3
20260504231943 12 233 3.2 11.3 0.00 0.00 0.00 42 1003.1
20260504231442 12 86 3.2 11.3 0.00 0.00 0.00 44 1003.2
20260504230942 12 142 3.2 8.0 0.00 0.00 0.00 42 1003.2
20260504230715 12 282 3.2 12.9 0.00 0.00 0.00 43 1003.1
20260504225944 12 190 3.2 12.9 0.00 0.00 0.00 42 1003.0
20260504225713 12 78 3.2 9.7 0.00 0.00 0.00 42 1002.9
20260504224942 13 5 3.2 11.3 0.00 0.00 0.00 41 1002.7
20260504224443 12 58 3.2 11.3 0.00 0.00 0.00 43 1002.7
20260504223937 13 62 1.6 9.7 0.00 0.00 0.00 44 1002.6
20260504223432 13 302 3.2 9.7 0.00 0.00 0.00 41 1002.6
20260504223427 13 160 3.2 9.7 0.00 0.00 0.00 41 1002.5
20260504222649 13 15 3.2 12.9 0.00 0.00 0.00 43 1002.3
20260504221919 13 233 3.2 12.9 0.00 0.00 0.00 42 1002.2
20260504221425 13 167 3.2 16.1 0.00 0.00 0.00 44 1002.2
20260504221420 13 194 3.2 12.9 0.00 0.00 0.00 45 1002.3
20260504220417 13 108 3.2 16.1 0.00 0.00 0.00 44 1002.1
20260504215915 13 342 3.2 14.5 0.00 0.00 0.00 44 1002.0
20260504215414 13 190 1.6 12.9 0.00 0.00 0.00 44 1002.0
20260504214915 13 200 3.2 14.5 0.00 0.00 0.00 42 1001.9
20260504214414 13 238 3.2 14.5 0.00 0.00 0.00 44 1001.9
20260504214142 14 202 3.2 11.3 0.00 0.00 0.00 44 1001.8
20260504213412 14 133 3.2 9.7 0.00 0.00 0.00 44 1001.8
20260504212913 14 117 1.6 11.3 0.00 0.00 0.00 46 1001.5
20260504212412 15 318 3.2 11.3 0.00 0.00 0.00 43 1001.4
20260504211912 15 75 1.6 11.3 0.00 0.00 0.00 43 1001.3
20260504211412 15 352 3.2 17.7 0.00 0.00 0.00 43 1001.3
20260504210912 15 131 4.8 17.7 0.00 0.00 0.00 40 1001.4
20260504210412 15 165 4.8 11.3 0.00 0.00 0.00 41 1001.3
20260504210143 15 82 3.2 11.3 0.00 0.00 0.00 44 1001.3
20260504205407 14 5 4.8 11.3 0.00 0.00 0.00 50 1001.1
20260504204900 13 28 4.8 14.5 0.00 0.00 0.00 45 1001.2
20260504204355 14 354 3.2 14.5 0.00 0.00 0.00 44 1001.1
20260504203850 14 15 3.2 14.5 0.00 0.00 0.00 45 1001.1
20260504203342 15 193 3.2 12.9 0.00 0.00 0.00 44 1001.0
20260504202836 15 273 3.2 11.3 0.00 0.00 0.00 45 1001.0
20260504202331 14 348 3.2 11.3 0.00 0.00 0.00 48 1001.2
20260504201825 15 345 4.8 17.7 0.00 0.00 0.00 46 1001.0
20260504201319 15 155 4.8 17.7 0.00 0.00 0.00 45 1000.9
20260504201043 15 233 3.2 11.3 0.00 0.00 0.00 46 1000.9
20260504200307 15 13 1.6 12.9 0.00 0.00 0.00 43 1000.8
20260504195800 16 324 3.2 12.9 0.00 0.00 0.00 44 1000.8
20260504195255 16 323 3.2 11.3 0.00 0.00 0.00 44 1000.7
20260504195021 17 134 4.8 16.1 0.00 0.00 0.00 45 1000.5
20260504194244 17 214 4.8 20.9 0.00 0.00 0.00 43 1000.4
20260504193737 17 290 4.8 20.9 0.00 0.00 0.00 44 1000.3
20260504193231 17 165 4.8 14.5 0.00 0.00 0.00 45 1000.3
20260504192725 17 240 4.8 14.5 0.00 0.00 0.00 44 1000.2
20260504192219 17 225 3.2 12.9 0.00 0.00 0.00 43 1000.2
20260504191713 17 290 6.4 16.1 0.00 0.00 0.00 43 1000.2
20260504191207 17 139 4.8 16.1 0.00 0.00 0.00 45 1000.0
20260504190701 17 193 3.2 12.9 0.00 0.00 0.00 46 1000.1
20260504190155 17 316 3.2 12.9 0.00 0.00 0.00 46 999.9
20260504185650 17 102 3.2 16.1 0.00 0.00 0.00 47 999.8
20260504185644 16 312 4.8 16.1 0.00 0.00 0.00 44 999.7
20260504184636 16 180 4.8 16.1 0.00 0.00 0.00 48 999.7
20260504184131 17 95 4.8 16.1 0.00 0.00 0.00 45 999.7
20260504183625 17 204 4.8 16.1 0.00 0.00 0.00 46 999.6
20260504183349 17 252 4.8 11.3 0.00 0.00 0.00 48 999.6
20260504182613 16 162 4.8 16.1 0.00 0.00 0.00 48 999.4
20260504182107 16 133 4.8 16.1 0.00 0.00 0.00 45 999.4
20260504181601 16 295 4.8 14.5 0.00 0.00 0.00 44 999.2
20260504181054 16 18 3.2 14.5 0.00 0.00 0.00 45 999.2
20260504180819 17 321 3.2 11.3 0.00 0.00 0.00 46 999.1
20260504180042 17 94 3.2 16.1 0.00 0.00 0.00 47 999.1
20260504175537 17 39 3.2 16.1 0.00 0.00 0.00 46 998.9
20260504175031 17 97 3.2 14.5 0.00 0.00 0.00 47 999.0
20260504174524 17 68 4.8 16.1 0.00 0.00 0.00 42 998.7
20260504174019 17 113 4.8 16.1 0.00 0.00 0.00 43 998.6
20260504173744 17 176 4.8 17.7 0.00 0.00 0.00 46 998.8
20260504173239 17 131 4.8 17.7 0.00 0.00 0.00 40 998.7
20260504172501 17 222 4.8 14.5 0.00 0.00 0.00 45 998.7
20260504171954 17 305 6.4 19.3 0.00 0.00 0.00 45 998.7
20260504171720 17 122 6.4 17.7 0.00 0.00 0.00 43 998.5
20260504170943 16 222 8.0 17.7 0.00 0.00 0.00 44 998.6
20260504170436 16 215 8.0 14.5 0.00 0.00 0.00 45 998.7
20260504160325 16 179 4.8 20.9 0.00 0.00 0.00 46 998.1
20260504150718 16 231 4.8 12.9 0.00 0.00 0.00 48 997.6
20260504150443 16 110 3.2 8.0 0.00 0.00 0.00 51 997.7
20260504141114 15 180 3.2 9.7 0.00 0.00 0.00 51 997.5
20260504140607 14 211 1.6 12.9 0.00 0.00 0.00 54 997.5
20260504140333 14 167 3.2 12.9 0.00 0.00 0.00 53 997.5
20260504130727 14 194 3.2 11.3 0.00 0.00 0.00 55 996.8
20260504110231 15 212 8.0 17.7 0.00 0.00 0.00 45 994.8
20260504100119 14 249 4.8 16.1 0.00 0.00 0.00 43 994.9